User: anonymous   Login
Location: Cantarrana
(10.3575°N, 66.9340°W)
Time: 15:14:22
(UTC+00:00)
Language:

Nadezhda 2 Rocket - Orbit

View from above orbital plane
View from above orbital plane
View from above satellite
View from above satellite

Ground track
Ground track

The orbit data is extracted from the following two-line orbital elements,

1 20509U 90017B   22142.19587083  .00000075  00000-0  61655-4 0  9994
2 20509  82.9545  72.3427 0043130 173.3143 186.8598 13.75629167617780
Epoch (UTC): 22 May 2022 04:42:03
Eccentricity: 0.0043130
inclination: 82.9545°
perigee height: 947 km
apogee height: 1011 km
right ascension of ascending node: 72.3427°
argument of perigee: 173.3143°
revolutions per day: 13.75629167
mean anomaly at epoch: 186.8598°
orbit number at epoch: 61778

The dashed part of the orbit path shows where the satellite is in the earth's shadow,  

DLR